Location: Azat
(46.0765°N, 1.7600°E)
Time: 12:02:19
(UTC+00:00)

MetOp-B - Pass Details

Date: 09 April 2020
Orbit: 819 x 822 km, 98.7° (Epoch: 05 June)

Event Time Altitude Azimuth Distance (km) Brightness Sun altitude
Exits shadow 20:32:20 35° 147° (SSE) 1,296 4.7 -19.7°
Maximum altitude 20:34:36 72° 72° (ENE) 867 4.1 -20.0°
Drops below altitude 10° 20:39:57 10° 350° (N) 2,430 7.2 -20.7°
Sets 20:42:19 0° 348° (NNW) 3,367 8.1 -21.1°
